Weather History for KMPV - January, 2013

Change the Weather History Date:

Monday, January 28, 2013

  Actual Average Record
Temperature  
Mean Temperature 7 °F 17 °F  
Max Temperature 16 °F 27 °F 51 °F (2002)
Min Temperature -3 °F 7 °F -22 °F (2003)
Degree Days  
Heating Degree Days 58 48  
Month to date heating degree days 1282 1356  
Since 1 July heating degree days 4245 4504  
Cooling Degree Days 0 0  
Month to date cooling degree days 0  
Year to date cooling degree days 0  
Moisture  
Dew Point 7 °F    
Average Humidity 81    
Maximum Humidity 96    
Minimum Humidity 66    
Precipitation  
Precipitation 0.16 in 0.09 in 0.95 in (2009)
Month to date precipitation 0.37 2.19  
Year to date precipitation 0.37 2.19  
Sea Level Pressure  
Sea Level Pressure 30.17 in    
Wind  
Wind Speed 0 mph (ENE)    
Max Wind Speed 5 mph    
Max Gust Speed 5 mph    
Visibility 3 miles    
Events Fog , Snow    
T = Trace of Precipitation, MM = Missing Value Source: NWS Daily Summary

Daily Weather History Graph

Daily Weather History Graph

Search for Another Location

Airport or City:

Trip Planner

Search our weather history database for the weather conditions in past years. The results will help you decide how hot, cold, wet, or windy it might be!

Date:

Astronomy

Jan. 28, 2013 Rise Set
Actual Time 7:12 AM EST 4:54 PM EST
Civil Twilight 6:41 AM EST 5:26 PM EST
Nautical Twilight 6:06 AM EST 6:00 PM EST
Astronomical Twilight 5:32 AM EST 6:35 PM EST
Moon 6:53 PM EST (1/28) 7:31 AM EST (1/28)
Length of Visible Light 10h 45m
Length of Day
9h 42m
Full, 98% of the Moon is Illuminated
Jan 28
Full
Feb 3
Last Quarter
Feb 10
New
Feb 17
First Quarter
Feb 25
Full

Hourly Weather History & Observations

Time (EST) Temp. Windchill Dew Point Humidity Pressure Visibility Wind Dir Wind Speed Gust Speed Precip Events Conditions
12:51 AM -0.0 °F - -8.0 °F 69% 30.51 in 10.0 mi Calm Calm - N/A   Scattered Clouds
1:51 AM -0.9 °F - -8.0 °F 72% 30.52 in 10.0 mi Calm Calm - N/A   Clear
2:51 AM -2.0 °F - -8.0 °F 76% 30.50 in 10.0 mi Calm Calm - N/A   Clear
3:51 AM -2.9 °F - -8.0 °F 79% 30.49 in 10.0 mi Calm Calm - N/A   Clear
4:51 AM -2.0 °F - -7.1 °F 79% 30.48 in 9.0 mi Calm Calm - N/A   Clear
5:51 AM -2.0 °F - -6.0 °F 83% 30.47 in 10.0 mi Calm Calm - N/A   Partly Cloudy
6:51 AM -2.0 °F -10.1 °F -6.0 °F 83% 30.46 in 8.0 mi East 3.5 mph - N/A   Mostly Cloudy
7:51 AM 1.0 °F - -5.1 °F 75% 30.45 in 9.0 mi Calm Calm - N/A   Overcast
8:51 AM 3.0 °F - -4.0 °F 73% 30.44 in 10.0 mi Calm Calm - N/A   Overcast
9:51 AM 5.0 °F - -2.0 °F 73% 30.42 in 8.0 mi Calm Calm - N/A   Overcast
10:51 AM 7.0 °F - -0.9 °F 70% 30.39 in 8.0 mi Calm Calm - N/A   Overcast
11:47 AM 8.6 °F - -0.4 °F 67% 30.25 in 2.5 mi Calm Calm - N/A Snow Light Snow
11:51 AM 10.0 °F - 1.0 °F 67% 30.35 in 1.8 mi Calm Calm - 0.00 in Snow Light Snow
12:04 PM 10.4 °F - 3.2 °F 73% 30.23 in 1.2 mi Calm Calm - 0.00 in Snow Light Snow
12:35 PM 10.4 °F - 6.8 °F 85% 30.20 in 0.8 mi Calm Calm - 0.00 in Snow Light Snow
12:51 PM 10.0 °F - 7.0 °F 87% 30.28 in 0.8 mi Calm Calm - 0.01 in Snow Light Snow
1:13 PM 10.4 °F - 6.8 °F 85% 30.16 in 1.0 mi Calm Calm - 0.00 in Snow Light Snow
1:27 PM 10.4 °F 4.0 °F 6.8 °F 85% 30.16 in 1.2 mi NE 3.5 mph - 0.00 in Snow Light Snow
1:34 PM 10.4 °F - 8.6 °F 92% 30.16 in 1.0 mi Calm Calm - 0.00 in Snow Light Snow
1:44 PM 10.4 °F - 8.6 °F 92% 30.16 in 0.5 mi Calm Calm - 0.01 in Fog , Snow Snow
1:51 PM 10.9 °F - 8.1 °F 88% 30.25 in 0.5 mi Calm Calm - 0.01 in Fog , Snow Snow
2:46 PM 12.2 °F - 10.4 °F 92% 30.11 in 0.5 mi Calm Calm - 0.03 in Fog , Snow Snow
2:51 PM 12.9 °F - 10.0 °F 88% 30.20 in 0.2 mi Calm Calm - 0.03 in Fog , Snow Snow
3:51 PM 12.9 °F - 10.9 °F 92% 30.18 in 0.5 mi Calm Calm - 0.04 in Fog , Snow Snow
4:29 PM 12.2 °F - 10.4 °F 92% 30.08 in 0.8 mi Calm Calm - 0.02 in Snow Light Snow
4:37 PM 12.2 °F - 10.4 °F 92% 30.07 in 1.0 mi Calm Calm - 0.02 in Snow Light Snow
4:47 PM 14.0 °F - 12.2 °F 93% 30.08 in 1.5 mi Calm Calm - 0.02 in Snow Light Snow
4:51 PM 14.0 °F - 12.0 °F 92% 30.16 in 1.8 mi Calm Calm - 0.02 in Snow Light Snow
4:56 PM 14.0 °F - 12.2 °F 93% 30.06 in 3.0 mi Calm Calm - 0.00 in Snow Light Snow
5:22 PM 12.2 °F - 12.2 °F 100% 30.07 in 2.5 mi Calm Calm - 0.01 in Snow Light Snow
5:42 PM 14.0 °F - 12.2 °F 93% 30.07 in 3.0 mi Calm Calm - 0.01 in Snow Light Snow
5:51 PM 14.0 °F - 10.9 °F 88% 30.15 in 5.0 mi Calm Calm - 0.01 in   Overcast
6:12 PM 14.0 °F - 12.2 °F 93% 30.05 in 2.0 mi Calm Calm - 0.00 in Snow Light Snow
6:20 PM 14.0 °F - 10.4 °F 86% 30.04 in 1.5 mi Calm Calm - 0.00 in Snow Light Snow
6:35 PM 14.0 °F - 12.2 °F 93% 30.05 in 1.0 mi Calm Calm - 0.00 in Snow Light Snow
6:41 PM 14.0 °F - 12.2 °F 93% 30.05 in 1.5 mi Calm Calm - 0.00 in Snow Light Snow
6:48 PM 14.0 °F - 12.2 °F 93% 30.05 in 3.0 mi Calm Calm - 0.00 in Snow Light Snow
6:51 PM 14.0 °F - 12.0 °F 92% 30.14 in 4.0 mi Calm Calm - 0.00 in Snow Light Snow
7:51 PM 14.0 °F - 12.9 °F 95% 30.12 in 4.0 mi Calm Calm - 0.01 in Snow Light Snow
8:20 PM 15.8 °F - 12.2 °F 86% 30.02 in 2.0 mi Calm Calm - 0.00 in Snow Light Snow
8:28 PM 14.0 °F - 12.2 °F 93% 30.02 in 1.5 mi Calm Calm - 0.00 in Snow Light Snow
8:51 PM 15.1 °F - 12.9 °F 91% 30.09 in 1.8 mi Calm Calm - 0.00 in Snow Light Snow
9:10 PM 15.8 °F - 12.2 °F 86% 30.01 in 2.5 mi Calm Calm - 0.01 in Snow Light Snow
9:20 PM 15.8 °F - 12.2 °F 86% 30.00 in 3.0 mi Calm Calm - 0.01 in Snow Light Snow
9:34 PM 15.8 °F - 12.2 °F 86% 30.01 in 2.0 mi Calm Calm - 0.01 in Snow Light Snow
9:41 PM 15.8 °F - 12.2 °F 86% 30.00 in 1.5 mi Calm Calm - 0.01 in Snow Light Snow
9:51 PM 15.8 °F - 12.2 °F 86% 30.01 in 1.2 mi Calm Calm - N/A Snow Light Snow
10:03 PM 15.8 °F - 12.2 °F 86% 30.01 in 1.0 mi Calm Calm - 0.01 in Snow Light Snow
10:10 PM 15.8 °F - 12.2 °F 86% 30.01 in 1.5 mi Calm Calm - 0.01 in Snow Light Snow
10:20 PM 15.8 °F - 12.2 °F 86% 30.00 in 2.5 mi Calm Calm - 0.01 in Snow Light Snow
10:45 PM 15.8 °F - 12.2 °F 86% 30.01 in 1.2 mi Calm Calm - 0.01 in Snow Light Snow
10:51 PM 15.1 °F - 12.9 °F 91% 30.09 in 1.2 mi Calm Calm - 0.02 in Snow Light Snow
10:58 PM 15.8 °F - 12.2 °F 86% 30.02 in 2.0 mi Calm Calm - 0.00 in Snow Light Snow
11:11 PM 15.8 °F - 12.2 °F 86% 30.02 in 1.8 mi Calm Calm - 0.00 in Snow Light Snow
11:19 PM 15.8 °F - 14.0 °F 93% 30.02 in 2.5 mi Calm Calm - 0.00 in Snow Light Snow
11:32 PM 15.8 °F - 12.2 °F 86% 30.01 in 4.0 mi Calm Calm - N/A Snow Light Snow
11:51 PM 16.0 °F - 14.0 °F 92% 30.10 in 5.0 mi Calm Calm - 0.00 in   Overcast